ONEWEB-0127

Last updated on Mon Jan 18 2021 00:02:03 GMT+0000 (Coordinated Universal Time)

1 47273U 20100R 21017.58334491 -.01450684 00000-0 -77118-1 0 9999 2 47273 87.4437 29.0384 0012205 156.0252 311.1311 15.18287772 1858

Satellite not in orbit